Regional Weather Roundup
Issued by NWS

Home | Current Version | Previous Version | Graphics & Text | Print | Product List | Glossary On
Versions: 1 2 3 4 5 6 7 8 9 10 11 12 13 14 15 16 17 18 19 20 21 22 23 24 25 26 27 28 29 30 31 32 33 34 35 36 37 38 39 40 41 42 43 44 45 46 47 48 49 50
000
ASUS43 KBIS 271120
RWRND

NORTH DAKOTA REGIONAL WEATHER ROUNDUP
NATIONAL WEATHER SERVICE BISMARCK ND
500 AM CST THU NOV 27 2014

NOTE: "FAIR" INDICATES FEW OR NO CLOUDS BELOW 12,000 FEET WITH NO
SIGNIFICANT WEATHER AND/OR OBSTRUCTIONS TO VISIBILITY.


NDZ001>003-009>011-017-271200-
NORTHWEST NORTH DAKOTA

CITY           SKY/WX    TMP DP  RH WIND       PRES   REMARKS
WILLISTON      CLOUDY     8   4  83 NE5       30.24F WCI   0
MINOT          PTCLDY   -12 -18  74 CALM      30.34F
MINOT AFB      CLOUDY    -9 -15  77 S5        30.34F WCI -21
$$

NDZ018>021-031>035-040>046-271200-
SOUTHWEST NORTH DAKOTA

CITY           SKY/WX    TMP DP  RH WIND       PRES   REMARKS
BISMARCK       CLOUDY    -7 -12  79 NE7       30.41F WCI -21
DICKINSON      CLOUDY    12   8  84 S16       30.19F WCI  -5
GARRISON         N/A      8   5  87 S12       30.32F WCI  -7
HETTINGER ARPT CLOUDY    11   9  92 SE10      30.24F WCI  -3
$$

NDZ004>008-012>016-024-026-027-054-271200-
NORTHEAST NORTH DAKOTA

CITY           SKY/WX    TMP DP  RH WIND       PRES   REMARKS
GRAND FORKS    PTCLDY   -16 -20  82 SW5       30.54S WCI -29
GRND FRKS AFB  PTCLDY   -15 -21  76 SW6       30.52F WCI -30
DEVILS LAKE    PTCLDY    -6 -17  59 S6        30.39F WCI -18
$$

NDZ022-023-025-028>030-036>039-047>053-271200-
SOUTHEAST NORTH DAKOTA

CITY           SKY/WX    TMP DP  RH WIND       PRES   REMARKS
FARGO          PTCLDY   -13 -19  75 W6        30.56R WCI -27
JAMESTOWN      MOCLDY   -22 -27  77 CALM      30.45F
$$




USA.gov is the U.S. government's official web portal to all federal, state and local government web resources and services.